Simultaneous Nadir Overpasses (SNOs) Predictions

Prediction of SNOs between GOES-15 and TERRA Satellite Orbit:

Table of predicted SNOs for the next 14.0 days since TLE Epoch: 10/31/2025
Index Date Time (GOES-15) GOES-15 Lat,Lon TERRA Lat,Lon Distance(km) Time Diff (sec)
1 11/02/2025 05:03:25 0.69, 61.56 0.56, 62.20 72.34 80
2 11/02/2025 17:22:56 -0.68, 61.68 -1.55, 57.44 481.28 80
3 11/04/2025 17:00:47 -0.69, 61.72 -0.60, 62.14 47.69 80
4 11/05/2025 05:20:11 0.68, 61.61 1.54, 57.41 477.16 80
5 11/07/2025 05:03:21 0.69, 61.66 0.61, 62.11 51.51 80
6 11/09/2025 17:00:41 -0.69, 61.83 -0.65, 62.06 25.76 80
7 11/12/2025 05:03:14 0.69, 61.78 0.66, 62.04 28.32 80
8 11/14/2025 17:00:34 -0.69, 61.95 -0.70, 61.99 4.13 80
